STARLINK-32948, 63123

Orbit data source: Space-Track

STARLINK-32948, 63123 is a payload satellite owned by SpaceX/Seattle (US) in LEO that was launched on Thu, 27 Feb 2025 UTC via an FALCON 9 launch vehicle from the Air Force Eastern Test Range (AFETR). Payload-class satellites include a variety of spacecraft equipped with specific instruments for various scientific and technological missions. These include communications satellites like Starlink; space stations such as the ISS; scientific satellites like the Hubble; Earth observation satellites from companies like Planet Labs, Umbra, and HawkEye 360; GPS; miniature CubeSats for education and research; and military/defense satellites.

Loading next visibility...
Identifier
63123, 2025-039V
Orbit
LEO
Country
Flag of USUS
Related business
Manufacturer
SpaceX/Seattle
Mission
Operational Commercial Communications
Bus & Motor
STARLINK V2M, Unknown motor
Mass
730 kg wet, ~700 kg dry
Launch date (UTC)
2025-02-27 (1 year ago)
Launch vehicle
FALCON 9
Launch site
Air Force Eastern Test Range (AFETR)
Object type
Payload
Rocket body
Debris
Shape & HBR
Box + 2 Pan, 17.7 m
Radar Cross Section
33.884 m², Large (>1 m²)

Expand to show TLE details & history
Last TLE update: 1 day ago

TLE from 1 day ago
0 STARLINK-32948
1 63123U 25039V   26071.08633387  .00034932  00000-0  12717-2 0  9999
2 63123  42.9998 359.2181 0001709 240.3216 119.7465 15.27611027 58437
Epoch: 2026-03-12T02:04Z
TLE epoch observation values (Epoch: 2026-03-12T02:04:19.246Z)
Latitude
-0.00005°
Longitude
158.39658°
Altitude
483.313 km
Speed
7.625 km/s
True Right ascension
23h 56m 52s
True Declination
0° 00' 00"
Sunlit
Object was in daylight at epoch
Visualization orbit readout
Latitude
Unknown
Longitude
Unknown
Altitude
Unknown
Speed
Unknown
Apparent Right ascension
Unknown
Apparent Declination
Unknown
Sunlit
N/A
Visualization observer readout
Local Sidereal Time
12:57:28
Azimuth
Unknown
Elevation
Unknown
Doppler factor
Unknown
Orbital elements
Apogee altitude
486.074 km
Perigee altitude
483.729 km
Semi-major axis
6,863.038 km
Eccentricity
0.00017
Inclination
42.9998°
RAAN
359.2181°
Arg. of periapsis
240.3216°
True anomaly
119.7635°
Mean anomaly
119.7465°
Eccentric anomaly
119.755°
Mean motion
3.81741 °/min
Orbital period
94.3 mins
BSTAR
0.0012717
Loading maneuver chart data...
Computing Atmospheric mass density...
Loading historical data...
Loading historical data...
Loading historical data...
Loading historical data...
Loading historical data...
Loading historical data...
Loading historical data...

Documentation

Showing up to 5 results
|